DIRECTV 14

Last updated on Tue Jul 01 2025 00:02:46 GMT+0000 (Coordinated Universal Time)

1 40333U 14078B 25181.40540824 -.00000128 00000+0 00000+0 0 9997 2 40333 0.0191 29.0187 0000607 104.6639 191.7446 1.00281689 38519
UTC large
Height (km)
Speed (km/s)
/
Latitude / Longitude
Inclination (degrees)
Orbital Period (minutes)
Azimuth
Elevation
Range (km)
Doppler Factor

Next 0 passes for location: London (51.5072 / 0.1276)

Sorry there are no passes over London.